Regional Weather Roundup
Issued by NWS

Home | Current Version | Previous Version | Text Only | Print | Product List | Glossary Off
Versions: 1 2 3 4 5 6 7 8 9 10 11 12 13 14 15 16 17 18 19 20 21 22 23 24 25 26 27 28 29 30 31 32 33 34 35 36 37 38 39 40 41 42 43 44 45 46 47 48 49 50

000
ASUS45 KCYS 020510
RWRWY

WYOMING REGIONAL WEATHER ROUNDUP
NATIONAL WEATHER SERVICE CHEYENNE WY
1100 PM MDT SAT AUG 01 2015

NOTE:  "FAIR" INDICATES FEW OR NO CLOUDS BELOW 12,000 FEET
WITH NO SIGNIFICANT WEATHER AND/OR OBSTRUCTIONS TO VISIBILITY.

WYZ001-020600-
YELLOWSTONE NATIONAL PARK

CITY           SKY/WX    TMP DP  RH WIND       PRES   REMARKS
LK YELLOWSTONE   N/A     50  35  56 NW3       30.34S
W YELLOWSTONE  NOT AVBL

$$
WYZ002>013-054>058-071-098>099-020600-
NORTHERN WYOMING

CITY           SKY/WX    TMP DP  RH WIND       PRES   REMARKS
JACKSON        NOT AVBL
CODY           FAIR      70  34  26 S6        30.09S
GREYBULL       FAIR      79  30  16 SE3       29.96R
WORLAND        FAIR      67  27  22 VRB3      29.99S
SHERIDAN       FAIR      68  36  30 S3        29.98S
BUFFALO        FAIR      71  28  20 W8        30.07F
GILLETTE       FAIR      60  34  37 S5        30.00F
HULETT         FAIR      64  36  34 S9        30.00S
NEWCASTLE      FAIR      73  45  35 E8        30.02S

$$
WYZ014>020-022>026-101>103-020600-
CENTRAL WYOMING

CITY           SKY/WX    TMP DP  RH WIND       PRES   REMARKS
BIG PINEY      FAIR      59  31  34 N12       30.25S
PINEDALE       FAIR      55  34  44 W5        30.26S
DUBOIS         FAIR      61  28  29 W13       30.26S
LANDER         FAIR      73  33  23 W12       30.10R
RIVERTON       FAIR      75  21  13 NE5       30.10S
CASPER         FAIR      62  31  31 CALM      30.09S
DOUGLAS        FAIR      69  42  37 SE9       30.08R

$$
WYZ021-027>030-104>119-020600-
SOUTHERN WYOMING

CITY           SKY/WX    TMP DP  RH WIND       PRES   REMARKS
EVANSTON       FAIR      69  27  20 N7        30.25R
KEMMERER       FAIR      63  30  29 N10       30.26S
FORT BRIDGER   CLEAR     68  28  22 NW5       30.27S
ROCK SPRINGS   FAIR      64  27  24 NW9       30.19S
DIXON          FAIR      64  38  38 CALM      30.20F
RAWLINS        FAIR      71  34  25 NE10      30.19F
SARATOGA       FAIR      61  30  31 S7        30.21S
LARAMIE        FAIR      61  42  49 SW5       30.23F
CHEYENNE       FAIR      67  53  61 SE10      30.17S
TORRINGTON     FAIR      65  57  75 SE7       30.03S
PINE BLUFFS    FAIR      68  52  56 SE14G22   30.11F

$$


USA.gov is the U.S. government's official web portal to all federal, state and local government web resources and services.